Location: Drawsko Pomorskie
(53.5317°N, 15.8111°E)
Time: 22:32:14
(UTC+01:00)

ISS - Pass Details

Date: 27 January 2019
Orbit: 403 x 411 km, 51.6° (Epoch: 20 February)

Event Time Altitude Azimuth Distance (km) Brightness Sun altitude
Rises 18:22:06 0° 236° (WSW) 2,331 1.2 -16.5°
Reaches altitude 10° 18:24:15 10° 229° (SW) 1,474 -0.1 -16.9°
Maximum altitude 18:27:20 38° 159° (SSE) 649 -3.0 -17.3°
Enters shadow 18:27:46 36° 139° (SE) 676 -3.0 -17.4°
